Miscellaneous Local Product
Issued by NWS Hastings, NE

Home | Current Version | Previous Version | Graphics & Text | Print | Product List | Glossary On
Versions: 1 2 3 4 5 6 7 8 9 10 11 12 13 14 15 16 17 18 19 20 21 22 23 24 25 26 27 28 29 30 31 32 33 34 35 36 37 38 39 40 41 42 43 44 45 46 47 48 49 50
000
AXUS43 KGID 291402
MISGRI

GID CWA HOURLY WEATHER ROUNDUP
NATIONAL WEATHER SERVICE HASTINGS NE
900 AM CDT FRI APR 29 2016

NOTE: "FAIR" INDICATES FEW OR NO CLOUDS BELOW 12,000 FEET WITH NO
SIGNIFICANT WEATHER AND/OR OBSTRUCTIONS TO VISIBILITY.

...SOUTH CENTRAL NEBRASKA...

CITY           SKY/WX    TMP DP  RH WIND       PRES   REMARKS
GRAND ISLAND   CLOUDY    42  38  85 NE12      30.05R
HASTINGS       CLOUDY    43  38  82 NE12      30.04R
KEARNEY        CLOUDY    43  37  81 NE13      30.05R
ORD            CLOUDY    43  39  86 N13       30.04F
YORK           CLOUDY    43  39  87 NE14      30.05S
AURORA         CLOUDY    43  40  91 NE15      30.03F
LEXINGTON      CLOUDY    43  37  80 N15       30.02F
HOLDREGE       MOSUNNY   41  38  87 N9        30.04R
HEBRON         CLOUDY    45  38  79 E13       30.04F

...NEBRASKA PANHANDLE...

CITY           SKY/WX    TMP DP  RH WIND       PRES   REMARKS
CHADRON        CLOUDY    38  35  89 NE3       30.08F
ALLIANCE       CLOUDY    37  35  92 N9        30.03F WCI  30
SCOTTSBLUFF    CLOUDY    38  35  89 NE6       30.03F WCI  33
SIDNEY         FOG       36  35  96 E10       30.02S VSB 1/4 WCI  28

...WESTERN AND NORTH CENTRAL NEBRASKA...

CITY           SKY/WX    TMP DP  RH WIND       PRES   REMARKS
VALENTINE      CLOUDY    39  36  89 N8        30.07F WCI  33
AINSWORTH      CLOUDY    40  39  97 N12       30.07F WCI  33
ONEILL         CLOUDY    40  39  96 N8        30.09F FOG     WCI  35
BROKEN BOW     CLOUDY    41  39  93 N12       30.03F
IMPERIAL       CLOUDY    41  38  89 NE13      30.01F
NORTH PLATTE   CLOUDY    41  36  82 N12       30.04F
MCCOOK         CLOUDY    43  40  89 NE14      30.02F

...EASTERN NEBRASKA...

CITY           SKY/WX    TMP DP  RH WIND       PRES   REMARKS
NORFOLK        CLOUDY    44  38  79 N13       30.07S
SO SIOUX CITY  CLOUDY    45  39  79 N10       30.09F
TEKAMAH        CLOUDY    44  41  89 N12       30.07F
COLUMBUS       CLOUDY    45  36  70 N12       30.05F
ALBION         CLOUDY    43  38  81 N10       30.06S
OMAHA EPPLEY   CLOUDY    46  40  79 NE14      30.07F
OFFUTT AFB     CLOUDY    46  41  81 NE12      30.06S
MILLARD        CLOUDY    46  40  81 NE3       30.06F
LINCOLN        CLOUDY    47  38  71 NE14      30.08R
NEBRASKA CITY  CLOUDY    45  40  85 NE6       30.09R
BEATRICE       CLOUDY    45  39  81 NE12      30.06F
FALLS CITY     CLOUDY    47  41  80 NE10      30.08R

...NORTHERN KANSAS...

CITY           SKY/WX    TMP DP  RH WIND       PRES   REMARKS
GOODLAND       LGT RAIN  40  38  93 E13       29.97F WCI  32
HILL CITY      CLOUDY    43  40  89 E14       30.03R
NORTON         CLOUDY    43  36  75 NE14      30.03R
PHILLIPSBURG   CLOUDY    45  39  81 NE9       30.06R
SMITH CENTER   MOSUNNY   43  37  81 NE13      30.06R
BELOIT         PTSUNNY   45  37  76 NE14      30.03R
HAYS           CLOUDY    43  36  75 NE20      30.00S
RUSSELL        CLOUDY    44  41  89 NE15      29.98R
CONCORDIA      CLOUDY    45  40  82 E8        30.03F
SALINA         RAIN      47  44  90 NE12      30.03R FOG
TOPEKA         CLOUDY    49  41  74 NE13G21   30.06R



USA.gov is the U.S. government's official web portal to all federal, state and local government web resources and services.